• In Hungary
  • List of Countries
  • For 7 days
  • Water Temperature
  • Satellite Maps
  • Weather Map
  • News
  • Weather Widgets
  • user-avatar
    Login

    Hourly Weather Wolica

    Today, 24 October, Wednesday

    Time Temperature Precipitation Wind Pressure Humidity
    00:00 +7°C° 0.2 mm 10 mps 738 mmHg 77%
    01:00 +7°C° 0.2 mm 10 mps 738 mmHg 76%
    02:00 +6°C° 0.3 mm 10 mps 738 mmHg 74%
    03:00 +6°C° 0.3 mm 10 mps 738 mmHg 72%
    04:00 +6°C° 0.3 mm 10 mps 738 mmHg 69%
    05:00 +5°C° 0.1 mm 9 mps 739 mmHg 69%
    06:00 +5°C° 0.1 mm 9 mps 740 mmHg 69%
    07:00 +4°C° 0.1 mm 8 mps 740 mmHg 69%
    08:00 +5°C° 0.1 mm 9 mps 741 mmHg 62%
    09:00 +5°C° 0.1 mm 10 mps 742 mmHg 54%
    10:00 +6°C° 0.1 mm 11 mps 742 mmHg 46%
    11:00 +6°C° 0 mm 11 mps 743 mmHg 45%
    12:00 +7°C° 0 mm 11 mps 743 mmHg 44%
    13:00 +7°C° 0 mm 11 mps 744 mmHg 42%
    14:00 +7°C° 0 mm 10 mps 744 mmHg 43%
    15:00 +6°C° 0 mm 8 mps 745 mmHg 45%
    16:00 +6°C° 0 mm 7 mps 745 mmHg 46%
    17:00 +5°C° 0 mm 7 mps 746 mmHg 49%
    18:00 +5°C° 0 mm 7 mps 747 mmHg 51%
    19:00 +4°C° 0 mm 6 mps 747 mmHg 54%
    20:00 +4°C° 0 mm 6 mps 748 mmHg 57%
    21:00 +3°C° 0 mm 6 mps 748 mmHg 61%
    22:00 +3°C° 0 mm 6 mps 748 mmHg 64%
    23:00 +3°C° 0 mm 5 mps 748 mmHg 67%

    Tomorrow, 25 October, Thursday

    Time Temperature Precipitation Wind Pressure Humidity
    00:00 +3°C° 0 mm 5 mps 748 mmHg 69%
    01:00 +2°C° 0 mm 5 mps 748 mmHg 72%
    02:00 +3°C° 0 mm 5 mps 748 mmHg 73%
    03:00 +3°C° 0 mm 5 mps 747 mmHg 75%
    04:00 +3°C° 0 mm 5 mps 746 mmHg 76%
    05:00 +5°C° 0.7 mm 5 mps 746 mmHg 80%
    06:00 +4°C° 0.7 mm 6 mps 745 mmHg 85%
    07:00 +5°C° 0.7 mm 6 mps 744 mmHg 90%
    08:00 +6°C° 0.4 mm 7 mps 743 mmHg 88%
    09:00 +7°C° 0.4 mm 8 mps 743 mmHg 86%
    10:00 +9°C° 0.4 mm 10 mps 742 mmHg 84%
    11:00 +9°C° 0.2 mm 10 mps 742 mmHg 83%
    12:00 +9°C° 0.2 mm 10 mps 742 mmHg 82%
    13:00 +9°C° 0.2 mm 10 mps 742 mmHg 81%
    14:00 +9°C° 0.2 mm 10 mps 742 mmHg 80%
    15:00 +9°C° 0.2 mm 10 mps 742 mmHg 78%
    16:00 +10°C° 0.2 mm 9 mps 743 mmHg 76%
    17:00 +8°C° 0.1 mm 9 mps 743 mmHg 76%
    18:00 +7°C° 0.1 mm 8 mps 743 mmHg 75%
    19:00 +6°C° 0.1 mm 7 mps 744 mmHg 75%
    20:00 +7°C° 0 mm 6 mps 744 mmHg 76%
    21:00 +7°C° 0 mm 6 mps 744 mmHg 78%
    22:00 +5°C° 0 mm 6 mps 745 mmHg 79%
    23:00 +5°C° 0 mm 6 mps 745 mmHg 80%

    Day after tomorrow, 26 October, Friday

    Time Temperature Precipitation Wind Pressure Humidity
    00:00 +5°C° 0 mm 6 mps 745 mmHg 82%
    01:00 +4°C° 0 mm 6 mps 745 mmHg 83%
    02:00 +5°C° 0 mm 5 mps 745 mmHg 84%
    03:00 +5°C° 0 mm 5 mps 745 mmHg 86%
    04:00 +5°C° 0 mm 5 mps 745 mmHg 87%
    05:00 +5°C° 0 mm 5 mps 745 mmHg 88%
    06:00 +5°C° 0 mm 5 mps 745 mmHg 88%
    07:00 +5°C° 0 mm 4 mps 745 mmHg 89%
    08:00 +6°C° 0 mm 5 mps 744 mmHg 84%
    09:00 +7°C° 0 mm 5 mps 744 mmHg 79%
    10:00 +8°C° 0 mm 5 mps 744 mmHg 73%
    11:00 +9°C° 0 mm 5 mps 744 mmHg 74%
    12:00 +10°C° 0 mm 5 mps 743 mmHg 75%
    13:00 +10°C° 0 mm 5 mps 743 mmHg 75%
    14:00 +10°C° 0 mm 5 mps 742 mmHg 75%
    15:00 +12°C° 0 mm 5 mps 742 mmHg 75%
    16:00 +12°C° 0 mm 4 mps 741 mmHg 74%
    17:00 +10°C° 0.1 mm 5 mps 741 mmHg 75%
    18:00 +10°C° 0.1 mm 5 mps 741 mmHg 76%
    19:00 +10°C° 0.1 mm 6 mps 740 mmHg 77%
    20:00 +9°C° 0 mm 6 mps 740 mmHg 76%
    21:00 +9°C° 0 mm 7 mps 740 mmHg 75%
    22:00 +8°C° 0 mm 7 mps 740 mmHg 74%
    23:00 +8°C° 0 mm 7 mps 740 mmHg 74%

    27 October, Saturday

    Time Temperature Precipitation Wind Pressure Humidity
    00:00 +8°C° 0 mm 7 mps 740 mmHg 73%
    01:00 +7°C° 0 mm 8 mps 740 mmHg 73%
    02:00 +6°C° 0 mm 8 mps 741 mmHg 72%
    03:00 +5°C° 0 mm 8 mps 741 mmHg 70%
    04:00 +5°C° 0 mm 9 mps 741 mmHg 69%
    05:00 +4°C° 0 mm 8 mps 742 mmHg 70%
    06:00 +4°C° 0 mm 8 mps 742 mmHg 71%
    07:00 +4°C° 0 mm 7 mps 743 mmHg 71%
    08:00 +4°C° 0 mm 7 mps 743 mmHg 69%
    09:00 +5°C° 0 mm 7 mps 744 mmHg 68%
    10:00 +5°C° 0 mm 7 mps 744 mmHg 66%
    11:00 +5°C° 0 mm 6 mps 745 mmHg 64%
    12:00 +7°C° 0 mm 6 mps 745 mmHg 62%
    13:00 +7°C° 0 mm 5 mps 745 mmHg 60%
    14:00 +7°C° 0 mm 4 mps 745 mmHg 60%
    15:00 +8°C° 0 mm 3 mps 746 mmHg 60%
    16:00 +8°C° 0 mm 3 mps 746 mmHg 61%
    17:00 +7°C° 0 mm 2 mps 746 mmHg 62%
    18:00 +8°C° 0 mm 1 mps 747 mmHg 64%
    19:00 +8°C° 0 mm 1 mps 747 mmHg 66%
    20:00 +7°C° 0 mm 1 mps 747 mmHg 67%
    21:00 +6°C° 0 mm 0 mps 748 mmHg 68%
    22:00 +6°C° 0 mm 0 mps 748 mmHg 69%
    23:00 +6°C° 0 mm 0 mps 748 mmHg 70%

    28 October, Sunday

    Time Temperature Precipitation Wind Pressure Humidity
    00:00 +6°C° 0 mm 0 mps 748 mmHg 70%
    01:00 +6°C° 0 mm 0 mps 748 mmHg 71%
    02:00 +6°C° 0 mm 1 mps 748 mmHg 71%
    03:00 +6°C° 0 mm 1 mps 748 mmHg 72%
    04:00 +6°C° 0 mm 1 mps 749 mmHg 72%
    05:00 +5°C° 0 mm 2 mps 749 mmHg 72%
    06:00 +5°C° 0 mm 2 mps 749 mmHg 73%
    07:00 +5°C° 0 mm 2 mps 749 mmHg 74%
    08:00 +5°C° 0 mm 3 mps 749 mmHg 70%
    09:00 +5°C° 0 mm 3 mps 749 mmHg 67%
    10:00 +6°C° 0 mm 4 mps 749 mmHg 64%
    11:00 +6°C° 0.4 mm 4 mps 749 mmHg 66%
    12:00 +6°C° 0.4 mm 4 mps 749 mmHg 68%
    13:00 +5°C° 0.4 mm 4 mps 749 mmHg 69%
    14:00 +5°C° 0.9 mm 5 mps 749 mmHg 72%
    15:00 +5°C° 0.9 mm 5 mps 749 mmHg 74%
    16:00 +3°C° 0.9 mm 6 mps 749 mmHg 76%
    17:00 +3°C° 0.6 mm 6 mps 749 mmHg 77%
    18:00 +3°C° 0.6 mm 7 mps 749 mmHg 77%
    19:00 +3°C° 0.6 mm 7 mps 749 mmHg 78%
    20:00 +3°C° 0.5 mm 7 mps 749 mmHg 79%
    21:00 +3°C° 0.5 mm 7 mps 749 mmHg 79%
    22:00 +2°C° 0.5 mm 7 mps 749 mmHg 80%
    23:00 +2°C° 0.6 mm 7 mps 749 mmHg 81%

    29 October, Monday

    Time Temperature Precipitation Wind Pressure Humidity
    00:00 +2°C° 0.6 mm 7 mps 749 mmHg 81%
    01:00 +2°C° 0.6 mm 7 mps 748 mmHg 82%
    02:00 +2°C° 0.6 mm 7 mps 748 mmHg 82%
    03:00 +2°C° 0.6 mm 7 mps 748 mmHg 82%
    04:00 +1°C° 0.6 mm 8 mps 748 mmHg 83%
    05:00 +1°C° 0.4 mm 8 mps 748 mmHg 83%
    06:00 +2°C° 0.4 mm 7 mps 747 mmHg 83%
    07:00 +2°C° 0.4 mm 7 mps 747 mmHg 83%
    08:00 +1°C° 0.7 mm 8 mps 747 mmHg 83%
    09:00 +2°C° 0.7 mm 8 mps 747 mmHg 83%
    10:00 +2°C° 0.7 mm 8 mps 747 mmHg 82%
    11:00 +2°C° 0.4 mm 8 mps 747 mmHg 82%
    12:00 +2°C° 0.4 mm 8 mps 747 mmHg 82%
    13:00 +2°C° 0.4 mm 8 mps 747 mmHg 82%
    14:00 +1°C° 0.7 mm 8 mps 747 mmHg 82%
    15:00 +1°C° 0.7 mm 8 mps 747 mmHg 82%
    16:00 +1°C° 0.7 mm 8 mps 748 mmHg 82%
    17:00 +2°C° 0.3 mm 7 mps 748 mmHg 82%
    18:00 +2°C° 0.3 mm 7 mps 748 mmHg 82%
    19:00 0°C° 0.3 mm 7 mps 749 mmHg 82%
    20:00 0°C° 0 mm 7 mps 749 mmHg 82%
    21:00 0°C° 0 mm 7 mps 749 mmHg 83%
    22:00 0°C° 0 mm 7 mps 749 mmHg 83%
    23:00 0°C° 0 mm 7 mps 750 mmHg 83%

    30 October, Tuesday

    Time Temperature Precipitation Wind Pressure Humidity
    00:00 0°C° 0 mm 7 mps 750 mmHg 83%
    01:00 0°C° 0 mm 7 mps 750 mmHg 83%
    02:00 0°C° 0 mm 7 mps 750 mmHg 83%
    03:00 0°C° 0 mm 8 mps 749 mmHg 83%
    04:00 0°C° 0 mm 8 mps 749 mmHg 83%
    05:00 0°C° 0.1 mm 8 mps 749 mmHg 83%
    06:00 0°C° 0.1 mm 8 mps 749 mmHg 83%
    07:00 0°C° 0.1 mm 8 mps 749 mmHg 83%
    08:00 0°C° 0.2 mm 8 mps 749 mmHg 83%
    09:00 0°C° 0.2 mm 8 mps 749 mmHg 83%
    10:00 0°C° 0.2 mm 8 mps 749 mmHg 83%
    11:00 0°C° 0.2 mm 9 mps 749 mmHg 83%
    12:00 0°C° 0.2 mm 9 mps 749 mmHg 83%
    13:00 +1°C° 0.2 mm 9 mps 748 mmHg 82%
    14:00 +1°C° 0.2 mm 9 mps 748 mmHg 82%
    15:00 +1°C° 0.2 mm 9 mps 748 mmHg 82%
    16:00 +1°C° 0.2 mm 9 mps 748 mmHg 83%
    17:00 +1°C° 0.1 mm 9 mps 747 mmHg 83%
    18:00 +1°C° 0.1 mm 10 mps 747 mmHg 83%
    19:00 +1°C° 0.1 mm 10 mps 746 mmHg 83%
    20:00 +1°C° 0.3 mm 10 mps 746 mmHg 83%
    21:00 +1°C° 0.3 mm 10 mps 745 mmHg 84%
    22:00 +1°C° 0.3 mm 11 mps 744 mmHg 84%
    23:00 +1°C° 2.4 mm 11 mps 744 mmHg 85%
    Show more